Year,Month,Day,Hour,Minute,Value (Times are PST for temperature in C)
2020,04,27,00,00,9.20
2020,04,27,00,01,9.20
2020,04,27,00,02,9.30
2020,04,27,00,03,9.30
2020,04,27,00,04,9.30
2020,04,27,00,05,9.30
2020,04,27,00,06,9.30
2020,04,27,00,07,9.40
2020,04,27,00,08,9.50
2020,04,27,00,09,9.50
2020,04,27,00,10,9.60
2020,04,27,00,11,9.70
2020,04,27,00,12,9.80
2020,04,27,00,13,9.80
2020,04,27,00,14,9.80
2020,04,27,00,15,9.80
2020,04,27,00,16,9.80
2020,04,27,00,17,9.80
2020,04,27,00,18,9.80
2020,04,27,00,19,9.80
2020,04,27,00,20,9.90
2020,04,27,00,21,10.00
2020,04,27,00,22,10.10
2020,04,27,00,23,10.20
2020,04,27,00,24,10.20
2020,04,27,00,25,10.30
2020,04,27,00,26,10.30
2020,04,27,00,27,10.30
2020,04,27,00,28,10.30
2020,04,27,00,29,10.30
2020,04,27,00,30,10.30
2020,04,27,00,31,10.30
2020,04,27,00,32,10.30
2020,04,27,00,33,10.30
2020,04,27,00,34,10.40
2020,04,27,00,35,10.40
2020,04,27,00,36,10.40
2020,04,27,00,37,10.40
2020,04,27,00,38,10.40
2020,04,27,00,39,10.40
2020,04,27,00,40,10.40
2020,04,27,00,41,10.40
2020,04,27,00,42,10.40
2020,04,27,00,43,10.40
2020,04,27,00,44,10.40
2020,04,27,00,45,10.40
2020,04,27,00,46,10.40
2020,04,27,00,47,10.40
2020,04,27,00,48,10.40
2020,04,27,00,49,10.40
2020,04,27,00,50,10.40
2020,04,27,00,51,10.40
2020,04,27,00,52,10.40
2020,04,27,00,53,10.40
2020,04,27,00,54,10.40
2020,04,27,00,55,10.40
2020,04,27,00,56,10.40
2020,04,27,00,57,10.40
2020,04,27,00,58,10.40
2020,04,27,00,59,10.40
2020,04,27,01,00,10.40
2020,04,27,01,01,10.30
2020,04,27,01,02,10.30
2020,04,27,01,03,10.30
2020,04,27,01,04,10.30
2020,04,27,01,05,10.30
2020,04,27,01,06,10.30
2020,04,27,01,07,10.30
2020,04,27,01,08,10.20
2020,04,27,01,09,10.20
2020,04,27,01,10,10.20
2020,04,27,01,11,10.20
2020,04,27,01,12,10.20
2020,04,27,01,13,10.20
2020,04,27,01,14,10.20
2020,04,27,01,15,10.20
2020,04,27,01,16,10.20
2020,04,27,01,17,10.20
2020,04,27,01,18,10.20
2020,04,27,01,19,10.20
2020,04,27,01,20,10.20
2020,04,27,01,21,10.20
2020,04,27,01,22,10.20
2020,04,27,01,23,10.20
2020,04,27,01,24,10.20
2020,04,27,01,25,10.20
2020,04,27,01,26,10.20
2020,04,27,01,27,10.20
2020,04,27,01,28,10.10
2020,04,27,01,29,10.10
2020,04,27,01,30,10.10
2020,04,27,01,31,10.10
2020,04,27,01,32,10.10
2020,04,27,01,33,10.10
2020,04,27,01,34,10.10
2020,04,27,01,35,10.10
2020,04,27,01,36,10.10
2020,04,27,01,37,10.10
2020,04,27,01,38,10.10
2020,04,27,01,39,10.10
2020,04,27,01,40,10.10
2020,04,27,01,41,10.10
2020,04,27,01,42,10.10
2020,04,27,01,43,10.10
2020,04,27,01,44,10.10
2020,04,27,01,45,10.10
2020,04,27,01,46,10.10
2020,04,27,01,47,10.10
2020,04,27,01,48,10.10
2020,04,27,01,49,10.10
2020,04,27,01,50,10.10
2020,04,27,01,51,10.10
2020,04,27,01,52,10.10
2020,04,27,01,53,10.10
2020,04,27,01,54,10.10
2020,04,27,01,55,10.10
2020,04,27,01,56,10.10
2020,04,27,01,57,10.10
2020,04,27,01,58,10.10
2020,04,27,01,59,10.10
2020,04,27,02,00,10.10
2020,04,27,02,01,10.10
2020,04,27,02,02,10.10
2020,04,27,02,03,10.10
2020,04,27,02,04,10.10
2020,04,27,02,05,10.10
2020,04,27,02,06,10.10
2020,04,27,02,07,10.10
2020,04,27,02,08,10.10
2020,04,27,02,09,10.10
2020,04,27,02,10,10.10
2020,04,27,02,11,10.10
2020,04,27,02,12,10.10
2020,04,27,02,13,10.10
2020,04,27,02,14,10.10
2020,04,27,02,15,10.10
2020,04,27,02,16,10.10
2020,04,27,02,17,10.00
2020,04,27,02,18,10.00
2020,04,27,02,19,10.00
2020,04,27,02,20,10.00
2020,04,27,02,21,10.00
2020,04,27,02,22,10.00
2020,04,27,02,23,10.00
2020,04,27,02,24,9.90
2020,04,27,02,25,9.90
2020,04,27,02,26,9.90
2020,04,27,02,27,9.90
2020,04,27,02,28,9.90
2020,04,27,02,29,9.90
2020,04,27,02,30,9.90
2020,04,27,02,31,9.90
2020,04,27,02,32,9.80
2020,04,27,02,33,9.80
2020,04,27,02,34,9.80
2020,04,27,02,35,9.80
2020,04,27,02,36,9.80
2020,04,27,02,37,9.80
2020,04,27,02,38,9.80
2020,04,27,02,39,9.80
2020,04,27,02,40,9.80
2020,04,27,02,41,9.70
2020,04,27,02,42,9.70
2020,04,27,02,43,9.70
2020,04,27,02,44,9.70
2020,04,27,02,45,9.70
2020,04,27,02,46,9.70
2020,04,27,02,47,9.70
2020,04,27,02,48,9.70
2020,04,27,02,49,9.70
2020,04,27,02,50,9.70
2020,04,27,02,51,9.70
2020,04,27,02,52,9.70
2020,04,27,02,53,9.70
2020,04,27,02,54,9.70
2020,04,27,02,55,9.70
2020,04,27,02,56,9.70
2020,04,27,02,57,9.60
2020,04,27,02,58,9.60
2020,04,27,02,59,9.60
2020,04,27,03,00,9.60
2020,04,27,03,01,9.60
2020,04,27,03,02,9.60
2020,04,27,03,03,9.60
2020,04,27,03,04,9.60
2020,04,27,03,05,9.70
2020,04,27,03,06,9.70
2020,04,27,03,07,9.70
2020,04,27,03,08,9.70
2020,04,27,03,09,9.70
2020,04,27,03,10,9.70
2020,04,27,03,11,9.70
2020,04,27,03,12,9.70
2020,04,27,03,13,9.70
2020,04,27,03,14,9.70
2020,04,27,03,15,9.70
2020,04,27,03,16,9.70
2020,04,27,03,17,9.80
2020,04,27,03,18,9.80
2020,04,27,03,19,9.80
2020,04,27,03,20,9.80
2020,04,27,03,21,9.70
2020,04,27,03,22,9.70
2020,04,27,03,23,9.70
2020,04,27,03,24,9.70
2020,04,27,03,25,9.70
2020,04,27,03,26,9.70
2020,04,27,03,27,9.70
2020,04,27,03,28,9.70
2020,04,27,03,29,9.70
2020,04,27,03,30,9.70
2020,04,27,03,31,9.80
2020,04,27,03,32,9.80
2020,04,27,03,33,9.80
2020,04,27,03,34,9.80
2020,04,27,03,35,9.80
2020,04,27,03,36,9.80
2020,04,27,03,37,9.80
2020,04,27,03,38,9.80
2020,04,27,03,39,9.80
2020,04,27,03,40,9.80
2020,04,27,03,41,9.80
2020,04,27,03,42,9.80
2020,04,27,03,43,9.80
2020,04,27,03,44,9.80
2020,04,27,03,45,9.80
2020,04,27,03,46,9.80
2020,04,27,03,47,9.80
2020,04,27,03,48,9.80
2020,04,27,03,49,9.80
2020,04,27,03,50,9.80
2020,04,27,03,51,9.80
2020,04,27,03,52,9.70
2020,04,27,03,53,9.70
2020,04,27,03,54,9.70
2020,04,27,03,55,9.70
2020,04,27,03,56,9.70
2020,04,27,03,57,9.70
2020,04,27,03,58,9.70
2020,04,27,03,59,9.70
2020,04,27,04,00,9.70
2020,04,27,04,01,9.70
2020,04,27,04,02,9.70
2020,04,27,04,03,9.70
2020,04,27,04,04,9.70
2020,04,27,04,05,9.70
2020,04,27,04,06,9.60
2020,04,27,04,07,9.60
2020,04,27,04,08,9.60
2020,04,27,04,09,9.60
2020,04,27,04,10,9.60
2020,04,27,04,11,9.60
2020,04,27,04,12,9.60
2020,04,27,04,13,9.60
2020,04,27,04,14,9.60
2020,04,27,04,15,9.60
2020,04,27,04,16,9.60
2020,04,27,04,17,9.60
2020,04,27,04,18,9.60
2020,04,27,04,19,9.50
2020,04,27,04,20,9.50
2020,04,27,04,21,9.50
2020,04,27,04,22,9.50
2020,04,27,04,23,9.50
2020,04,27,04,24,9.50
2020,04,27,04,25,9.50
2020,04,27,04,26,9.50
2020,04,27,04,27,9.50
2020,04,27,04,28,9.50
2020,04,27,04,29,9.50
2020,04,27,04,30,9.50
2020,04,27,04,31,9.50
2020,04,27,04,32,9.50
2020,04,27,04,33,9.50
2020,04,27,04,34,9.50
2020,04,27,04,35,9.50
2020,04,27,04,36,9.50
2020,04,27,04,37,9.50
2020,04,27,04,38,9.50
2020,04,27,04,39,9.50
2020,04,27,04,40,9.50
2020,04,27,04,41,9.50
2020,04,27,04,42,9.40
2020,04,27,04,43,9.40
2020,04,27,04,44,9.40
2020,04,27,04,45,9.40
2020,04,27,04,46,9.40
2020,04,27,04,47,9.40
2020,04,27,04,48,9.40
2020,04,27,04,49,9.40
2020,04,27,04,50,9.40
2020,04,27,04,51,9.40
2020,04,27,04,52,9.40
2020,04,27,04,53,9.40
2020,04,27,04,54,9.40
2020,04,27,04,55,9.40
2020,04,27,04,56,9.40
2020,04,27,07,45,9.40
2020,04,27,07,46,9.40
2020,04,27,07,47,9.40
2020,04,27,07,48,9.40
2020,04,27,07,49,9.40
2020,04,27,07,50,9.40
2020,04,27,07,51,9.50
2020,04,27,07,52,9.50
2020,04,27,07,53,9.50
2020,04,27,07,54,9.50
2020,04,27,07,55,9.50
2020,04,27,07,56,9.60
2020,04,27,07,57,9.60
2020,04,27,07,58,9.60
2020,04,27,07,59,9.60
2020,04,27,08,00,9.60
2020,04,27,08,01,9.70
2020,04,27,08,02,9.70
2020,04,27,08,03,9.70
2020,04,27,08,04,9.70
2020,04,27,08,05,9.70
2020,04,27,08,06,9.70
2020,04,27,08,07,9.70
2020,04,27,08,08,9.70
2020,04,27,08,09,9.70
2020,04,27,08,10,9.70
2020,04,27,08,11,9.70
2020,04,27,08,12,9.70
2020,04,27,08,13,9.60
2020,04,27,08,14,9.60
2020,04,27,08,15,9.60
2020,04,27,08,16,9.60
2020,04,27,08,17,9.60
2020,04,27,08,18,9.60
2020,04,27,08,19,9.60
2020,04,27,08,20,9.60
2020,04,27,08,21,9.60
2020,04,27,08,22,9.60
2020,04,27,08,23,9.60
2020,04,27,08,24,9.60
2020,04,27,08,25,9.60
2020,04,27,08,26,9.60
2020,04,27,08,27,9.60
2020,04,27,08,28,9.60
2020,04,27,08,29,9.60
2020,04,27,08,30,9.60
2020,04,27,08,31,9.60
2020,04,27,08,32,9.60
2020,04,27,08,33,9.60
2020,04,27,08,34,9.60
2020,04,27,08,35,9.60
2020,04,27,08,36,9.70
2020,04,27,08,37,9.70
2020,04,27,08,38,9.70
2020,04,27,08,39,9.70
2020,04,27,08,40,9.70
2020,04,27,08,41,9.70
2020,04,27,08,42,9.70
2020,04,27,08,43,9.70
2020,04,27,08,44,9.80
2020,04,27,08,45,9.80
2020,04,27,08,46,9.80
2020,04,27,08,47,9.80
2020,04,27,08,48,9.80
2020,04,27,08,49,9.80
2020,04,27,08,50,9.90
2020,04,27,08,51,9.90
2020,04,27,08,52,9.90
2020,04,27,08,53,9.90
2020,04,27,08,54,9.90
2020,04,27,08,55,10.00
2020,04,27,08,56,10.00
2020,04,27,08,57,10.00
2020,04,27,08,58,10.00
2020,04,27,08,59,10.10
2020,04,27,09,00,10.10
2020,04,27,09,01,10.10
2020,04,27,09,02,10.10
2020,04,27,09,03,10.00
2020,04,27,09,04,10.00
2020,04,27,09,05,10.00
2020,04,27,09,06,10.00
2020,04,27,09,07,10.10
2020,04,27,09,08,10.10
2020,04,27,09,09,10.20
2020,04,27,09,10,10.20
2020,04,27,09,11,10.30
2020,04,27,09,12,10.30
2020,04,27,09,13,10.30
2020,04,27,09,14,10.30
2020,04,27,09,15,10.30
2020,04,27,09,16,10.30
2020,04,27,09,17,10.30
2020,04,27,09,18,10.30
2020,04,27,09,19,10.30
2020,04,27,09,20,10.40
2020,04,27,09,21,10.40
2020,04,27,09,22,10.50
2020,04,27,09,23,10.60
2020,04,27,09,24,10.60
2020,04,27,09,25,10.60
2020,04,27,09,26,10.70
2020,04,27,09,27,10.80
2020,04,27,09,28,10.80
2020,04,27,09,29,10.80
2020,04,27,09,30,10.80
2020,04,27,09,31,10.90
2020,04,27,09,32,10.90
2020,04,27,09,33,10.90
2020,04,27,09,34,10.90
2020,04,27,09,35,10.90
2020,04,27,09,36,10.90
2020,04,27,09,37,10.90
2020,04,27,09,38,11.00
2020,04,27,09,39,11.00
2020,04,27,09,40,11.10
2020,04,27,09,41,11.10
2020,04,27,09,42,11.10
2020,04,27,09,43,11.10
2020,04,27,09,44,11.10
2020,04,27,09,45,11.10
2020,04,27,09,46,11.20
2020,04,27,09,47,11.10
2020,04,27,09,48,11.10
2020,04,27,09,49,11.10
2020,04,27,09,50,11.10
2020,04,27,09,51,11.10
2020,04,27,09,52,11.10
2020,04,27,09,53,11.10
2020,04,27,09,54,11.10
2020,04,27,09,55,11.10
2020,04,27,09,56,11.10
2020,04,27,09,57,11.10
2020,04,27,09,58,11.10
2020,04,27,09,59,11.10
2020,04,27,10,00,11.10
2020,04,27,10,01,11.10
2020,04,27,10,02,11.10
2020,04,27,10,03,11.10
2020,04,27,10,04,11.20
2020,04,27,10,05,11.20
2020,04,27,10,06,11.20
2020,04,27,10,07,11.20
2020,04,27,10,08,11.20
2020,04,27,10,09,11.20
2020,04,27,10,10,11.20
2020,04,27,10,11,11.20
2020,04,27,10,12,11.20
2020,04,27,10,13,11.20
2020,04,27,10,14,11.30
2020,04,27,10,15,11.30
2020,04,27,10,16,11.30
2020,04,27,10,17,11.30
2020,04,27,10,18,11.40
2020,04,27,10,19,11.40
2020,04,27,10,20,11.40
2020,04,27,10,21,11.50
2020,04,27,10,22,11.50
2020,04,27,10,23,11.40
2020,04,27,10,24,11.40
2020,04,27,10,25,11.40
2020,04,27,10,26,11.40
2020,04,27,10,27,11.40
2020,04,27,10,28,11.40
2020,04,27,10,29,11.50
2020,04,27,10,30,11.40
2020,04,27,10,31,11.40
2020,04,27,10,32,11.40
2020,04,27,10,33,11.40
2020,04,27,10,34,11.30
2020,04,27,10,35,11.30
2020,04,27,10,36,11.30
2020,04,27,10,37,11.30
2020,04,27,10,38,11.20
2020,04,27,10,39,11.20
2020,04,27,10,40,11.20
2020,04,27,10,41,11.10
2020,04,27,10,42,11.20
2020,04,27,10,43,11.20
2020,04,27,10,44,11.30
2020,04,27,10,45,11.30
2020,04,27,10,46,11.30
2020,04,27,10,47,11.30
2020,04,27,10,48,11.30
2020,04,27,10,49,11.30
2020,04,27,10,50,11.30
2020,04,27,10,51,11.30
2020,04,27,10,52,11.30
2020,04,27,10,53,11.30
2020,04,27,10,54,11.30
2020,04,27,10,55,11.30
2020,04,27,10,56,11.30
2020,04,27,10,57,11.30
2020,04,27,10,58,11.30
2020,04,27,10,59,11.30
2020,04,27,11,00,11.20
2020,04,27,11,01,11.20
2020,04,27,11,02,11.20
2020,04,27,11,03,11.20
2020,04,27,11,04,11.20
2020,04,27,11,05,11.20
2020,04,27,11,06,11.20
2020,04,27,11,07,11.20
2020,04,27,11,08,11.20
2020,04,27,11,09,11.20
2020,04,27,11,10,11.20
2020,04,27,11,11,11.20
2020,04,27,11,12,11.20
2020,04,27,11,13,11.20
2020,04,27,11,14,11.20
2020,04,27,11,15,11.20
2020,04,27,11,16,11.20
2020,04,27,11,17,11.20
2020,04,27,11,18,11.30
2020,04,27,11,19,11.30
2020,04,27,11,20,11.30
2020,04,27,11,21,11.30
2020,04,27,11,22,11.30
2020,04,27,11,23,11.30
2020,04,27,11,24,11.40
2020,04,27,11,25,11.40
2020,04,27,11,26,11.40
2020,04,27,11,27,11.40
2020,04,27,11,28,11.40
2020,04,27,11,29,11.30
2020,04,27,11,30,11.40
2020,04,27,11,31,11.40
2020,04,27,11,32,11.40
2020,04,27,11,33,11.30
2020,04,27,11,34,11.40
2020,04,27,11,35,11.30
2020,04,27,11,36,11.30
2020,04,27,11,37,11.30
2020,04,27,11,38,11.30
2020,04,27,11,39,11.30
2020,04,27,11,40,11.30
2020,04,27,11,41,11.30
2020,04,27,11,42,11.40
2020,04,27,11,43,11.40
2020,04,27,11,44,11.40
2020,04,27,11,45,11.40
2020,04,27,11,46,11.40
2020,04,27,11,47,11.30
2020,04,27,11,48,11.40
2020,04,27,11,49,11.40
2020,04,27,11,50,11.40
2020,04,27,11,51,11.40
2020,04,27,11,52,11.40
2020,04,27,11,53,11.30
2020,04,27,11,54,11.30
2020,04,27,11,55,11.30
2020,04,27,11,56,11.30
2020,04,27,11,57,11.20
2020,04,27,11,58,11.20
2020,04,27,11,59,11.10
2020,04,27,12,00,11.10
2020,04,27,12,01,11.10
2020,04,27,12,02,11.00
2020,04,27,12,03,11.00
2020,04,27,12,04,10.90
2020,04,27,12,05,10.90
2020,04,27,12,06,10.80
2020,04,27,12,07,10.80
2020,04,27,12,08,10.80
2020,04,27,12,09,10.70
2020,04,27,12,10,10.70
2020,04,27,12,11,10.70
2020,04,27,12,12,10.60
2020,04,27,12,13,10.60
2020,04,27,12,14,10.50
2020,04,27,12,15,10.50
2020,04,27,12,16,10.40
2020,04,27,12,17,10.40
2020,04,27,12,18,10.30
2020,04,27,12,19,10.30
2020,04,27,12,20,10.30
2020,04,27,12,21,10.20
2020,04,27,12,22,10.20
2020,04,27,12,23,10.20
2020,04,27,12,24,10.10
2020,04,27,12,25,10.10
2020,04,27,12,26,10.00
2020,04,27,12,27,10.00
2020,04,27,12,28,9.90
2020,04,27,12,29,9.90
2020,04,27,12,30,9.90
2020,04,27,12,31,9.80
2020,04,27,12,32,9.80
2020,04,27,12,33,9.80
2020,04,27,12,34,9.80
2020,04,27,12,35,9.80
2020,04,27,12,36,9.80
2020,04,27,12,37,9.80
2020,04,27,12,38,9.90
2020,04,27,12,39,9.90
2020,04,27,12,40,10.00
2020,04,27,12,41,10.00
2020,04,27,12,42,10.10
2020,04,27,12,43,10.10
2020,04,27,12,44,10.20
2020,04,27,12,45,10.30
2020,04,27,12,46,10.40
2020,04,27,12,47,10.40
2020,04,27,12,48,10.50
2020,04,27,12,49,10.50
2020,04,27,12,50,10.60
2020,04,27,12,51,10.60
2020,04,27,12,52,10.70
2020,04,27,12,53,10.80
2020,04,27,12,54,10.80
2020,04,27,12,55,10.90
2020,04,27,12,56,10.90
2020,04,27,12,57,10.90
2020,04,27,12,58,10.90
2020,04,27,12,59,10.90
2020,04,27,13,00,10.90
2020,04,27,13,01,10.90
2020,04,27,13,02,10.90
2020,04,27,13,03,10.90
2020,04,27,13,04,11.00
2020,04,27,13,05,11.00
2020,04,27,13,06,11.10
2020,04,27,13,07,11.20
2020,04,27,13,08,11.20
2020,04,27,13,09,11.30
2020,04,27,13,10,11.30
2020,04,27,13,11,11.30
2020,04,27,13,12,11.30
2020,04,27,13,13,11.30
2020,04,27,13,14,11.30
2020,04,27,13,15,11.30
2020,04,27,13,16,11.30
2020,04,27,13,17,11.30
2020,04,27,13,18,11.40
2020,04,27,13,19,11.40
2020,04,27,13,20,11.40
2020,04,27,13,21,11.40
2020,04,27,13,22,11.40
2020,04,27,13,23,11.50
2020,04,27,13,24,11.50
2020,04,27,13,25,11.50
2020,04,27,13,26,11.50
2020,04,27,13,27,11.40
2020,04,27,13,28,11.40
2020,04,27,13,29,11.30
2020,04,27,13,30,11.30
2020,04,27,13,31,11.40
2020,04,27,13,32,11.40
2020,04,27,13,33,11.40
2020,04,27,13,34,11.40
2020,04,27,13,35,11.40
2020,04,27,13,36,11.40
2020,04,27,13,37,11.40
2020,04,27,13,38,11.40
2020,04,27,13,39,11.50
2020,04,27,13,40,11.50
2020,04,27,13,41,11.50
2020,04,27,13,42,11.60
2020,04,27,13,43,11.60
2020,04,27,13,44,11.60
2020,04,27,13,45,11.60
2020,04,27,13,46,11.70
2020,04,27,13,47,11.80
2020,04,27,13,48,11.80
2020,04,27,13,49,11.80
2020,04,27,13,50,11.90
2020,04,27,13,51,11.90
2020,04,27,13,52,11.90
2020,04,27,13,53,11.90
2020,04,27,13,54,11.90
2020,04,27,13,55,11.90
2020,04,27,13,56,12.00
2020,04,27,13,57,12.00
2020,04,27,13,58,12.00
2020,04,27,13,59,12.00
2020,04,27,14,00,11.90
2020,04,27,14,01,11.80
2020,04,27,14,02,11.80
2020,04,27,14,03,11.80
2020,04,27,14,04,11.80
2020,04,27,14,05,11.80
2020,04,27,14,06,11.80
2020,04,27,14,07,11.80
2020,04,27,14,08,11.80
2020,04,27,14,09,11.80
2020,04,27,14,10,11.80
2020,04,27,14,11,11.80
2020,04,27,14,12,11.70
2020,04,27,14,13,11.70
2020,04,27,14,14,11.60
2020,04,27,14,15,11.60
2020,04,27,14,16,11.60
2020,04,27,14,17,11.50
2020,04,27,14,18,11.50
2020,04,27,14,19,11.60
2020,04,27,14,20,11.60
2020,04,27,14,21,11.60
2020,04,27,14,22,11.60
2020,04,27,14,23,11.60
2020,04,27,14,24,11.50
2020,04,27,14,25,11.50
2020,04,27,14,26,11.40
2020,04,27,14,27,11.50
2020,04,27,14,28,11.50
2020,04,27,14,29,11.60
2020,04,27,14,30,11.70
2020,04,27,14,31,11.70
2020,04,27,14,32,11.70
2020,04,27,14,33,11.80
2020,04,27,14,34,11.80
2020,04,27,14,35,11.80
2020,04,27,14,36,11.80
2020,04,27,14,37,11.80
2020,04,27,14,38,11.90
2020,04,27,14,39,12.00
2020,04,27,14,40,12.00
2020,04,27,14,41,12.00
2020,04,27,14,42,12.00
2020,04,27,14,43,12.10
2020,04,27,14,44,12.10
2020,04,27,14,45,12.20
2020,04,27,14,46,12.20
2020,04,27,14,47,12.20
2020,04,27,14,48,12.10
2020,04,27,14,49,12.00
2020,04,27,14,50,12.00
2020,04,27,14,51,11.90
2020,04,27,14,52,11.90
2020,04,27,14,53,11.90
2020,04,27,14,54,11.90
2020,04,27,14,55,11.80
2020,04,27,14,56,11.90
2020,04,27,14,57,11.90
2020,04,27,14,58,11.90
2020,04,27,14,59,11.90
2020,04,27,15,00,11.90
2020,04,27,15,01,12.00
2020,04,27,15,02,12.00
2020,04,27,15,03,11.90
2020,04,27,15,04,11.90
2020,04,27,15,05,11.80
2020,04,27,15,06,11.80
2020,04,27,15,07,11.70
2020,04,27,15,08,11.70
2020,04,27,15,09,11.70
2020,04,27,15,10,11.70
2020,04,27,15,11,11.70
2020,04,27,15,12,11.70
2020,04,27,15,13,11.70
2020,04,27,15,14,11.70
2020,04,27,15,15,11.60
2020,04,27,15,16,11.70
2020,04,27,15,17,11.80
2020,04,27,15,18,11.80
2020,04,27,15,19,11.90
2020,04,27,15,20,11.90
2020,04,27,15,21,11.90
2020,04,27,15,22,11.90
2020,04,27,15,23,11.90
2020,04,27,15,24,11.90
2020,04,27,15,25,11.90
2020,04,27,15,26,11.90
2020,04,27,15,27,11.80
2020,04,27,15,28,11.80
2020,04,27,15,29,11.80
2020,04,27,15,30,11.80
2020,04,27,15,31,11.70
2020,04,27,15,32,11.70
2020,04,27,15,33,11.70
2020,04,27,15,34,11.70
2020,04,27,15,35,11.70
2020,04,27,15,36,11.70
2020,04,27,15,37,11.80
2020,04,27,15,38,11.80
2020,04,27,15,39,11.80
2020,04,27,15,40,11.90
2020,04,27,15,41,11.90
2020,04,27,15,42,11.90
2020,04,27,15,43,11.90
2020,04,27,15,44,12.00
2020,04,27,15,45,12.00
2020,04,27,15,46,12.10
2020,04,27,15,47,12.20
2020,04,27,15,48,12.20
2020,04,27,15,49,12.20
2020,04,27,15,50,12.30
2020,04,27,15,51,12.30
2020,04,27,15,52,12.30
2020,04,27,15,53,12.30
2020,04,27,15,54,12.20
2020,04,27,15,55,12.10
2020,04,27,15,56,12.10
2020,04,27,15,57,12.10
2020,04,27,15,58,12.20
2020,04,27,15,59,12.20
2020,04,27,16,00,12.20
2020,04,27,16,01,12.20
2020,04,27,16,02,12.20
2020,04,27,16,03,12.10
2020,04,27,16,04,12.10
2020,04,27,16,05,12.00
2020,04,27,16,06,12.00
2020,04,27,16,07,12.00
2020,04,27,16,08,12.00
2020,04,27,16,09,12.00
2020,04,27,16,10,11.90
2020,04,27,16,11,11.90
2020,04,27,16,12,11.80
2020,04,27,16,13,11.80
2020,04,27,16,14,11.80
2020,04,27,16,15,11.80
2020,04,27,16,16,11.70
2020,04,27,16,17,11.70
2020,04,27,16,18,11.70
2020,04,27,16,19,11.70
2020,04,27,16,20,11.80
2020,04,27,16,21,11.80
2020,04,27,16,22,11.90
2020,04,27,16,23,11.90
2020,04,27,16,24,12.00
2020,04,27,16,25,12.00
2020,04,27,16,26,12.00
2020,04,27,16,27,12.00
2020,04,27,16,28,12.10
2020,04,27,16,29,12.00
2020,04,27,16,30,12.10
2020,04,27,16,31,12.10
2020,04,27,16,32,12.10
2020,04,27,16,33,12.10
2020,04,27,16,34,12.10
2020,04,27,16,35,12.10
2020,04,27,16,36,12.00
2020,04,27,16,37,12.00
2020,04,27,16,38,11.90
2020,04,27,16,39,11.90
2020,04,27,16,40,12.00
2020,04,27,16,41,11.90
2020,04,27,16,42,11.90
2020,04,27,16,43,11.90
2020,04,27,16,44,11.80
2020,04,27,16,45,11.80
2020,04,27,16,46,11.80
2020,04,27,16,47,11.90
2020,04,27,16,48,11.80
2020,04,27,16,49,11.80
2020,04,27,16,50,11.80
2020,04,27,16,51,11.80
2020,04,27,16,52,11.80
2020,04,27,16,53,11.80
2020,04,27,16,54,11.80
2020,04,27,16,55,11.80
2020,04,27,16,56,11.80
2020,04,27,16,57,11.80
2020,04,27,16,58,11.80
2020,04,27,16,59,11.90
2020,04,27,17,00,11.90
2020,04,27,17,01,11.90
2020,04,27,17,02,11.90
2020,04,27,17,03,11.90
2020,04,27,17,04,11.80
2020,04,27,17,05,11.70
2020,04,27,17,06,11.60
2020,04,27,17,07,11.50
2020,04,27,17,08,11.40
2020,04,27,17,09,11.30
2020,04,27,17,10,11.30
2020,04,27,17,11,11.30
2020,04,27,17,12,11.40
2020,04,27,17,13,11.40
2020,04,27,17,14,11.40
2020,04,27,17,15,11.40
2020,04,27,17,16,11.40
2020,04,27,17,17,11.40
2020,04,27,17,18,11.40
2020,04,27,17,19,11.40
2020,04,27,17,20,11.40
2020,04,27,17,21,11.40
2020,04,27,17,22,11.40
2020,04,27,17,23,11.30
2020,04,27,17,24,11.30
2020,04,27,17,25,11.30
2020,04,27,17,26,11.20
2020,04,27,17,27,11.20
2020,04,27,17,28,11.20
2020,04,27,17,29,11.20
2020,04,27,17,30,11.20
2020,04,27,17,31,11.20
2020,04,27,17,32,11.20
2020,04,27,17,33,11.20
2020,04,27,17,34,11.20
2020,04,27,17,35,11.20
2020,04,27,17,36,11.20
2020,04,27,17,37,11.30
2020,04,27,17,38,11.30
2020,04,27,17,39,11.40
2020,04,27,17,40,11.50
2020,04,27,17,41,11.60
2020,04,27,17,42,11.60
2020,04,27,17,43,11.60
2020,04,27,17,44,11.50
2020,04,27,17,45,11.50
2020,04,27,17,46,11.50
2020,04,27,17,47,11.50
2020,04,27,17,48,11.50
2020,04,27,17,49,11.50
2020,04,27,17,50,11.50
2020,04,27,17,51,11.50
2020,04,27,17,52,11.50
2020,04,27,17,53,11.40
2020,04,27,17,54,11.30
2020,04,27,17,55,11.30
2020,04,27,17,56,11.20
2020,04,27,17,57,11.20
2020,04,27,17,58,11.20
2020,04,27,17,59,11.10
2020,04,27,18,00,11.10
2020,04,27,18,01,11.00
2020,04,27,18,02,10.90
2020,04,27,18,03,10.90
2020,04,27,18,04,10.90
2020,04,27,18,05,10.90
2020,04,27,18,06,11.00
2020,04,27,18,07,11.00
2020,04,27,18,08,11.00
2020,04,27,18,09,11.10
2020,04,27,18,10,11.00
2020,04,27,18,11,11.00
2020,04,27,18,12,11.00
2020,04,27,18,13,11.00
2020,04,27,18,14,11.00
2020,04,27,18,15,11.00
2020,04,27,18,16,11.00
2020,04,27,18,17,11.00
2020,04,27,18,18,11.00
2020,04,27,18,19,11.00
2020,04,27,18,20,11.00
2020,04,27,18,21,11.00
2020,04,27,18,22,10.90
2020,04,27,18,23,10.90
2020,04,27,18,24,10.90
2020,04,27,18,25,10.90
2020,04,27,18,26,10.90
2020,04,27,18,27,11.00
2020,04,27,18,28,11.00
2020,04,27,18,29,11.10
2020,04,27,18,30,11.10
2020,04,27,18,31,11.10
2020,04,27,18,32,11.10
2020,04,27,18,33,11.10
2020,04,27,18,34,11.10
2020,04,27,18,35,11.20
2020,04,27,18,36,11.20
2020,04,27,18,37,11.20
2020,04,27,18,38,11.20
2020,04,27,18,39,11.20
2020,04,27,18,40,11.20
2020,04,27,18,41,11.20
2020,04,27,18,42,11.20
2020,04,27,18,43,11.20
2020,04,27,18,44,11.20
2020,04,27,18,45,11.20
2020,04,27,18,46,11.20
2020,04,27,18,47,11.20
2020,04,27,18,48,11.10
2020,04,27,18,49,11.10
2020,04,27,18,50,11.00
2020,04,27,18,51,11.00
2020,04,27,18,52,10.90
2020,04,27,18,53,10.90
2020,04,27,18,54,10.90
2020,04,27,18,55,11.00
2020,04,27,18,56,11.00
2020,04,27,18,57,11.00
2020,04,27,18,58,11.00
2020,04,27,18,59,11.00
2020,04,27,19,00,10.90
2020,04,27,19,01,10.90
2020,04,27,19,02,10.90
2020,04,27,19,03,10.90
2020,04,27,19,04,10.90
2020,04,27,19,05,10.90
2020,04,27,19,06,11.00
2020,04,27,19,07,11.00
2020,04,27,19,08,11.00
2020,04,27,19,09,11.00
2020,04,27,19,10,11.00
2020,04,27,19,11,11.00
2020,04,27,19,12,11.00
2020,04,27,19,13,11.00
2020,04,27,19,14,11.00
2020,04,27,19,15,11.00
2020,04,27,19,16,11.00
2020,04,27,19,17,11.00
2020,04,27,19,18,11.00
2020,04,27,19,19,11.10
2020,04,27,19,20,11.10
2020,04,27,19,21,11.10
2020,04,27,19,22,11.10
2020,04,27,19,23,11.10
2020,04,27,19,24,11.00
2020,04,27,19,25,11.00
2020,04,27,19,26,11.00
2020,04,27,19,27,11.00
2020,04,27,19,28,10.90
2020,04,27,19,29,10.90
2020,04,27,19,30,10.90
2020,04,27,19,31,10.90
2020,04,27,19,32,10.80
2020,04,27,19,33,10.80
2020,04,27,19,34,10.80
2020,04,27,19,35,10.80
2020,04,27,19,36,10.80
2020,04,27,19,37,10.80
2020,04,27,19,38,10.80
2020,04,27,19,39,10.80
2020,04,27,19,40,10.80
2020,04,27,19,41,10.80
2020,04,27,19,42,10.70
2020,04,27,19,43,10.70
2020,04,27,19,44,10.70
2020,04,27,19,45,10.70
2020,04,27,19,46,10.70
2020,04,27,19,47,10.70
2020,04,27,19,48,10.70
2020,04,27,19,49,10.70
2020,04,27,19,50,10.60
2020,04,27,19,51,10.60
2020,04,27,19,52,10.60
2020,04,27,19,53,10.60
2020,04,27,19,54,10.50
2020,04,27,19,55,10.50
2020,04,27,19,56,10.40
2020,04,27,19,57,10.40
2020,04,27,19,58,10.40
2020,04,27,19,59,10.40
2020,04,27,20,00,10.30
2020,04,27,20,01,10.30
2020,04,27,20,02,10.30
2020,04,27,20,03,10.20
2020,04,27,20,04,10.20
2020,04,27,20,05,10.20
2020,04,27,20,06,10.20
2020,04,27,20,07,10.20
2020,04,27,20,08,10.10
2020,04,27,20,09,10.10
2020,04,27,20,10,10.10
2020,04,27,20,11,10.10
2020,04,27,20,12,10.10
2020,04,27,20,13,10.10
2020,04,27,20,14,10.10
2020,04,27,20,15,10.00
2020,04,27,20,16,10.00
2020,04,27,20,17,10.00
2020,04,27,20,18,10.00